Tracking 25995 objects as of 20-Aug-2022
HD Live streaming from Space Station
objects crossing your sky now

SUPERBIRD A

Track SUPERBIRD A now!
SUPERBIRD A is classified as:


NORAD ID: 20040
Int'l Code: 1989-041A
Perigee: 35,905.4 km
Apogee: 35,976.7 km
Inclination: 13.8 °
Period: 1,443.6 minutes
Semi major axis: 42312 km
RCS: 4.409 m2 (large)
Launch date: June 5, 1989
Source: Japan (JPN)
Launch site: FRENCH GUIANA (FRGUI)
aabbcc
Your satellite tracking list
Your tracking list is empty




NASA's NSSDC Master Catalog

Two Line Element Set (TLE):
1 20040U 89041A   22231.39415285 -.00000291  00000-0  00000-0 0  9998
2 20040  13.7815 342.5780 0008426 112.9314 322.9761  0.99748658120529
Source of the keplerian elements: AFSPC